RH
60 65 60 53 53 52 54 54 56 60 60 63 69 71 72 72 73 79 80 77 75 69 61 52 50 55 58 59 61 63 61 56 53 50 50 48 49 50 45 39 34 30 27 30 35 40 44 46 42 36 30 29 30 32 34 33 33 32 31 31 31 30 28 27 25 23 22 22 22 22 23 23 23 23 23 22 20 19 17 15 13 12 12 12 12
58 58 54 50 52 53 54 54 55 60 64 68 70 72 74 74 73 77 79 82 82 73 64 55 53 57 59 61 60 60 60 56 53 54 53 49 49 50 47 42 37 33 29 29 32 34 37 41 42 37 30 28 29 31 33 32 32 32 31 31 31 30 30 29 27 24 23 21 21 21 22 23 23 23 23 23 22 21 20 18 16 14 13 13 13
62 59 57 56 60 63 61 58 57 64 72 73 74 75 76 74 73 76 77 82 84 77 71 60 53 57 59 60 60 60 62 60 57 58 57 53 52 52 51 47 42 39 35 32 33 32 32 35 40 38 31 29 29 29 30 30 30 30 30 30 31 30 29 29 28 26 24 22 21 21 21 22 22 23 23 23 22 22 21 20 19 17 16 15 14
66 65 64 64 66 67 65 63 62 68 74 76 78 77 75 74 71 72 74 76 78 78 76 69 61 60 61 62 62 64 66 66 63 63 62 60 57 57 58 56 51 47 44 39 36 35 35 34 36 37 34 33 32 31 29 28 29 28 29 29 30 30 29 29 28 27 26 24 22 21 20 21 22 23 23 23 23 22 22 21 20 19 18 17 16
72 69 66 65 65 64 64 67 67 70 76 77 80 79 76 75 70 69 71 70 72 73 72 74 74 69 65 67 66 67 68 68 67 67 67 66 64 64 65 66 62 57 53 48 44 41 40 38 37 38 38 38 38 36 33 30 31 31 30 31 30 29 28 28 27 27 26 25 23 21 20 19 20 21 22 23 23 23 23 22 21 20 20 19 19
69 68 64 61 63 64 66 70 72 73 73 74 82 83 78 75 71 70 70 68 69 69 68 74 81 77 72 70 69 69 68 67 70 72 71 67 66 69 70 69 68 66 64 59 55 51 49 47 46 46 46 46 44 43 39 35 34 35 35 35 34 31 28 27 27 27 26 24 23 21 21 19 19 20 21 22 23 23 23 23 22 21 21 20 20
57 60 61 62 63 65 66 68 72 72 70 72 78 79 76 74 71 69 68 68 68 67 68 69 73 78 78 75 75 74 73 72 74 75 75 71 67 71 71 67 65 66 67 66 61 56 54 52 51 52 52 52 52 52 49 45 42 41 42 41 40 36 30 29 29 29 27 24 22 21 21 20 19 18 19 20 21 22 23 23 22 21 21 20 20
49 53 57 63 66 66 67 65 67 68 67 72 76 75 75 74 71 68 67 68 67 65 66 64 65 70 74 76 76 76 78 80 78 78 80 76 71 70 66 59 59 58 59 62 62 58 56 53 51 51 53 54 55 55 55 53 52 50 49 48 47 43 36 33 33 33 31 27 23 22 21 21 21 19 18 18 19 20 22 22 22 22 21 20 20
43 48 50 54 58 60 64 64 64 64 63 67 73 74 73 74 73 71 69 68 66 64 63 61 59 61 64 68 70 71 74 77 77 76 75 72 69 68 63 57 58 59 59 62 63 62 60 55 51 50 51 53 55 57 57 58 59 57 56 54 52 49 44 38 37 37 34 31 28 27 24 21 22 21 20 19 19 19 20 21 22 22 22 20 20
39 44 44 47 52 56 60 63 62 61 59 60 65 67 67 71 73 72 71 70 67 64 64 62 58 59 60 62 65 69 71 70 68 66 66 68 68 68 67 66 68 69 68 68 67 66 64 62 60 56 53 50 51 54 57 61 62 61 60 59 57 54 49 43 41 41 38 35 34 31 27 24 24 24 24 22 21 20 20 21 22 22 22 21 20
35 39 42 46 49 50 53 57 60 61 60 59 59 59 62 68 71 71 70 69 68 66 64 61 59 61 62 62 66 70 73 72 70 69 67 69 71 70 71 73 75 76 75 73 71 68 66 67 69 68 64 57 54 52 54 58 61 62 62 60 60 58 54 49 46 45 42 40 38 35 31 28 28 29 29 29 27 25 22 22 22 22 22 22 21
31 36 42 45 44 46 49 53 57 60 60 61 60 58 60 66 69 70 68 68 70 67 62 59 60 64 65 67 68 69 71 72 74 74 73 72 73 74 74 75 77 77 76 75 75 74 73 75 75 74 73 69 65 59 53 53 55 60 63 62 61 59 58 56 52 50 46 43 43 40 35 30 29 30 31 32 31 29 28 26 24 23 23 23 23
30 33 37 40 39 41 46 52 57 59 59 60 61 58 59 64 67 69 68 67 68 64 59 59 63 66 68 70 70 67 67 68 70 73 73 73 72 71 72 74 77 76 75 75 74 75 76 79 79 77 76 76 76 71 64 59 56 58 60 61 61 60 60 60 57 54 50 49 49 47 41 35 31 29 30 31 32 31 29 28 27 25 24 25 25
30 31 33 34 38 41 45 50 54 55 57 58 59 59 58 60 63 68 68 65 65 62 59 61 65 68 67 68 69 66 63 63 66 67 66 68 69 70 70 71 73 72 72 74 74 74 75 76 76 77 77 79 82 81 78 74 69 66 64 62 61 59 59 59 58 57 56 56 56 55 53 48 41 34 31 30 31 32 31 30 29 28 26 26 27
29 31 33 33 37 44 45 46 48 48 51 53 55 56 56 56 58 63 64 64 64 61 59 60 64 66 64 65 66 65 64 63 65 66 64 63 65 67 68 69 72 73 74 77 77 77 76 73 74 75 76 76 78 78 78 78 77 77 75 71 67 61 58 57 58 57 58 60 60 62 64 63 58 52 46 41 36 34 33 32 32 31 29 28 29
26 27 34 34 34 38 39 39 42 44 47 50 51 51 51 51 53 56 58 61 63 61 59 60 61 63 64 66 67 66 69 70 68 69 69 68 67 66 66 68 71 73 76 77 76 74 71 68 69 72 75 76 74 74 75 73 72 75 76 77 75 72 68 65 64 61 59 59 60 64 67 67 66 64 63 59 52 46 41 39 38 38 36 34 33
28 29 30 29 29 32 31 31 33 38 42 45 47 47 45 45 49 52 54 57 58 56 56 58 59 62 63 67 69 70 74 77 74 74 75 74 74 72 71 71 70 69 68 69 69 68 65 62 62 64 67 69 70 71 72 70 68 71 73 73 75 75 75 74 73 71 67 62 60 63 66 66 65 66 66 65 63 61 57 53 52 51 49 45 42
31 33 31 27 27 28 27 27 28 31 35 39 42 42 40 42 45 47 49 51 50 49 52 54 56 61 63 66 67 67 71 73 72 74 76 77 77 75 74 74 72 69 65 64 63 61 60 58 56 56 56 56 57 59 61 62 62 64 64 64 67 70 72 74 76 78 76 73 69 68 68 67 64 63 64 64 65 67 65 60 60 62 61 58 55
31 32 34 33 31 29 27 27 27 26 26 30 34 35 36 41 43 42 42 41 40 43 49 53 55 57 59 60 60 59 63 66 66 68 71 72 74 74 74 75 76 74 69 63 59 56 55 55 54 53 52 51 50 49 48 49 49 50 51 52 54 59 64 70 73 75 77 80 80 80 80 77 72 66 64 65 67 69 69 65 63 65 67 68 66
33 32 34 32 30 30 26 26 28 27 25 27 30 32 35 38 39 37 36 35 37 42 48 53 56 55 53 54 55 57 62 65 65 66 66 66 70 72 73 77 79 75 67 59 54 51 50 52 53 51 50 49 49 46 43 40 38 38 38 39 41 45 52 59 64 68 72 77 81 83 85 84 83 80 76 74 74 74 75 74 72 70 70 72 72
34 34 35 32 29 27 26 26 29 31 31 31 29 29 31 31 31 32 33 34 37 42 47 51 53 52 52 54 55 59 63 66 67 67 64 65 68 71 76 82 79 68 57 49 45 43 42 44 46 48 49 48 47 45 43 40 38 36 35 34 35 38 43 49 55 59 63 68 74 78 80 79 81 84 84 82 82 84 83 82 81 78 74 75 76
38 34 35 34 28 27 30 29 27 30 34 32 27 27 27 28 28 29 31 33 36 40 43 47 50 49 52 55 55 59 64 65 66 66 64 65 65 65 67 69 62 50 41 37 35 35 34 34 34 36 37 38 37 37 38 40 41 40 39 35 33 34 37 42 48 54 56 58 63 72 80 81 81 84 86 86 90 93 91 86 85 84 81 81 80
44 38 37 36 31 29 31 30 25 27 31 29 27 27 26 27 28 28 31 34 33 36 40 44 46 45 46 50 50 53 58 60 61 62 63 62 57 53 49 43 37 31 28 28 28 27 27 26 26 26 27 28 28 29 31 34 34 33 31 30 30 30 33 36 42 48 53 58 64 71 81 87 88 88 89 91 93 94 95 91 88 86 86 84 80
47 47 41 38 35 31 30 32 28 26 28 29 27 25 23 25 27 30 36 36 32 34 37 38 41 43 44 46 48 50 52 55 58 57 55 51 46 42 34 25 23 23 23 23 23 23 23 23 23 24 25 27 27 27 27 27 27 25 25 26 27 27 28 32 37 42 51 65 73 74 79 86 90 90 90 91 91 92 93 92 89 89 89 87 83
52 51 44 38 36 31 31 36 34 28 26 26 23 22 23 25 28 34 39 39 37 39 39 38 41 45 46 46 47 47 46 45 45 44 40 37 35 32 24 20 21 21 22 23 22 22 22 22 22 23 23 23 23 22 23 23 22 21 21 22 22 21 22 27 35 42 52 65 72 74 77 82 85 87 88 89 90 91 91 90 89 89 90 89 86
51 46 41 35 31 29 33 35 30 24 21 21 20 21 25 29 32 34 35 36 38 41 41 40 39 40 38 36 35 34 30 27 26 26 25 25 25 23 20 20 20 20 20 20 20 21 20 20 20 19 19 17 17 16 16 16 15 15 14 14 14 14 15 18 25 34 42 52 58 61 67 70 72 74 75 77 81 84 86 87 87 87 88 88 86
46 40 37 33 28 26 28 25 20 17 15 16 19 20 25 32 30 24 21 21 23 27 29 28 25 23 22 21 20 18 16 16 16 17 18 18 19 18 18 19 19 18 17 18 18 19 19 18 17 16 15 14 13 13 12 12 12 11 11 10 10 10 10 11 13 16 21 27 33 39 47 55 60 62 61 63 68 71 74 77 80 82 85 86 86
42 39 37 31 27 26 25 19 14 14 13 13 18 19 21 25 20 13 12 13 13 14 15 15 14 12 12 12 12 11 11 12 14 13 14 16 17 17 17 18 20 20 19 19 19 20 20 18 17 16 15 14 14 14 13 13 12 12 12 11 11 11 11 11 10 10 11 13 16 20 27 35 40 41 41 42 47 52 56 60 63 68 73 78 81
38 38 36 31 28 27 25 20 14 14 13 12 14 14 15 16 13 10 11 11 11 11 11 10 10 10 10 10 12 12 12 13 13 12 12 16 18 19 19 19 22 23 23 24 24 24 23 22 21 21 20 19 19 18 17 17 16 16 16 16 16 16 16 15 15 15 15 14 15 15 16 19 21 22 22 23 26 31 37 43 47 51 56 64 71
37 38 34 30 28 28 28 23 15 13 13 13 13 13 13 13 11 11 10 10 10 10 10 11 11 12 14 16 18 20 19 20 20 19 20 22 24 24 23 24 25 26 27 27 29 31 29 27 26 25 24 23 23 22 21 20 20 20 19 19 19 18 18 18 17 18 18 18 18 18 18 17 17 16 16 16 16 18 21 26 31 36 40 45 51
39 38 33 29 27 28 30 24 16 15 15 16 17 17 18 18 17 17 17 17 17 16 17 18 20 22 23 25 28 29 28 29 30 30 31 32 32 31 31 31 31 31 32 32 33 36 36 33 31 30 29 29 29 28 27 26 25 25 24 22 22 22 22 21 20 19 18 18 18 18 18 18 18 18 17 16 15 15 14 15 18 20 24 27 31
38 35 30 29 29 29 32 26 19 18 20 21 23 24 26 27 28 29 27 27 26 25 26 27 28 30 31 32 33 33 34 36 36 36 37 38 38 39 39 39 39 39 39 40 40 41 41 39 37 36 35 35 34 33 33 32 31 29 27 24 23 23 23 23 23 22 21 21 20 19 19 18 19 18 18 18 18 17 17 15 14 13 13 15 17
38 33 29 30 31 34 35 29 24 25 27 28 31 33 34 33 33 34 33 33 33 31 31 32 33 34 35 35 35 35 36 38 38 38 39 40 41 43 44 43 43 43 42 43 43 42 41 39 38 37 37 36 35 34 34 33 31 29 27 25 24 23 22 23 23 22 21 21 21 21 21 21 20 19 19 18 18 18 18 18 18 17 16 14 13
39 33 29 30 33 36 37 33 31 31 32 35 37 38 38 37 37 37 37 39 39 36 35 37 36 36 37 37 36 36 37 39 41 43 42 42 43 44 45 45 44 44 43 41 40 40 39 38 37 36 36 34 33 33 32 31 30 30 29 28 28 27 25 24 25 24 23 22 22 21 21 21 21 21 21 20 19 18 18 18 18 18 18 18 17
41 35 30 30 33 37 39 38 38 38 38 40 41 42 42 41 40 40 40 42 42 40 42 43 42 40 41 41 40 40 42 43 46 48 47 48 48 48 48 46 44 44 42 40 40 41 41 40 38 36 36 36 34 33 33 33 32 32 32 32 32 32 31 29 28 27 26 25 24 24 22 22 22 21 21 21 21 20 18 17 17 16 17 17 18
40 39 34 32 34 37 40 42 42 42 42 42 43 45 47 46 45 44 44 43 43 45 48 49 48 47 47 48 47 47 48 50 51 52 53 54 55 56 55 53 51 49 46 43 42 42 42 41 40 38 37 38 37 36 36 36 36 36 36 37 37 36 35 33 32 31 29 28 27 27 26 24 23 22 22 21 20 20 19 18 18 17 17 16 16
39 40 39 38 37 38 40 43 45 45 45 46 46 48 49 50 49 48 48 48 47 47 49 50 52 54 56 59 58 56 57 58 59 60 60 60 62 65 65 63 61 59 56 51 48 46 45 45 45 43 43 42 42 42 42 41 40 40 40 40 39 39 37 35 33 32 31 29 29 28 28 27 26 25 24 23 22 21 21 19 18 18 17 17 16
39 38 39 40 38 38 40 43 46 47 49 49 50 50 52 53 53 52 52 52 52 52 52 54 56 59 62 66 67 66 66 66 68 69 68 68 71 73 72 70 67 66 64 59 55 53 51 51 50 50 49 48 47 47 47 46 44 43 42 41 40 40 39 37 34 32 30 28 27 27 26 26 26 26 26 25 24 24 23 22 21 20 19 18 17
39 39 41 43 43 43 43 42 44 48 53 55 55 56 57 57 57 57 56 56 58 59 61 64 66 67 68 70 72 72 71 71 74 75 74 74 75 75 74 72 68 66 65 63 62 61 58 54 52 52 51 52 52 50 49 48 47 45 45 44 42 41 40 38 36 35 33 30 28 26 26 25 24 25 25 25 25 24 23 23 23 22 21 19 18
40 41 42 44 45 48 49 47 46 49 52 55 57 61 64 65 63 62 62 62 64 67 70 72 73 73 74 75 75 75 75 74 74 75 75 76 76 74 74 72 69 68 67 66 65 62 58 54 51 52 52 50 49 49 48 48 47 47 46 46 45 45 43 41 38 36 36 34 32 30 28 28 27 26 25 24 24 24 24 23 22 22 22 21 21
46 45 45 44 43 45 48 51 52 53 54 56 60 64 68 70 70 69 68 68 71 74 78 78 77 77 77 78 79 78 76 73 70 70 72 74 74 74 74 72 71 71 70 66 61 55 52 52 51 51 50 46 43 44 45 46 46 46 45 45 45 45 44 42 39 38 37 35 33 32 31 30 29 28 27 26 25 25 24 23 22 21 21 20 20
57 54 52 50 46 45 47 49 53 56 60 63 66 69 71 71 73 75 75 75 77 80 81 81 80 79 80 81 82 80 76 71 68 69 72 74 74 74 72 69 67 65 63 60 54 49 49 49 49 49 48 46 45 45 46 47 46 46 45 45 45 44 43 42 39 37 37 35 33 32 32 31 30 28 27 26 25 24 24 24 22 21 20 19 18
60 57 55 54 52 49 49 49 50 54 60 63 66 70 74 74 74 76 78 79 82 83 84 83 81 80 82 84 84 80 73 70 70 70 71 71 68 64 59 55 53 50 50 48 43 42 43 42 42 43 43 44 44 44 46 46 46 45 45 43 43 42 41 39 37 35 35 33 31 29 28 27 26 25 24 23 22 22 21 21 21 20 19 19 17
57 56 55 55 55 54 53 53 55 58 61 62 66 72 77 76 75 77 81 84 86 88 87 85 82 83 85 87 85 79 72 68 67 65 62 61 58 53 49 47 45 43 42 40 37 37 37 36 36 36 36 38 38 38 39 40 38 37 36 37 37 36 35 33 31 31 30 27 25 23 22 21 21 21 21 20 19 18 18 18 17 17 17 17 17
59 60 60 58 58 58 58 58 61 63 62 61 65 71 75 75 73 75 81 85 85 87 89 86 84 85 87 85 83 78 70 64 60 56 55 55 53 49 46 46 44 41 39 38 37 36 35 35 35 33 33 34 34 33 33 33 31 30 31 31 30 28 27 27 26 26 24 21 19 18 17 17 19 21 21 19 17 16 15 15 15 15 15 15 15
61 62 62 62 61 61 61 62 63 64 62 63 68 71 74 75 69 69 77 82 82 85 89 86 81 81 80 77 75 70 62 56 55 54 52 50 49 46 44 43 41 38 37 36 34 34 34 34 33 33 33 34 34 34 33 32 32 31 30 28 27 25 23 23 22 22 20 20 20 20 18 16 18 22 22 19 18 18 16 14 13 13 13 13 14
58 58 58 59 58 57 58 61 63 63 62 62 64 66 70 72 66 62 70 79 84 88 87 81 76 73 69 65 62 60 55 52 52 51 48 48 47 45 43 41 39 37 36 35 34 34 34 34 33 34 35 35 35 34 33 33 32 29 27 25 23 23 23 23 23 24 24 24 26 26 24 21 19 21 22 22 21 21 20 18 16 14 13 13 13
59 57 55 54 54 54 55 57 61 63 62 59 59 60 64 67 65 65 71 79 84 86 82 78 75 69 61 57 55 53 50 48 47 47 48 49 47 43 42 41 39 38 37 35 35 35 35 35 35 35 36 35 34 34 34 32 29 26 24 23 22 24 26 27 26 25 24 25 26 26 26 25 23 23 25 25 24 22 21 21 21 20 19 17 17
59 59 57 55 56 58 58 59 61 62 61 60 60 61 65 67 68 70 75 77 80 81 79 75 69 62 56 54 52 47 44 43 44 46 47 48 47 44 43 42 40 40 39 38 38 38 37 37 36 36 36 35 35 34 32 29 27 25 23 22 22 26 28 28 26 25 24 24 24 25 26 27 27 26 26 26 25 24 22 22 24 26 24 23 22
55 56 57 60 62 63 63 64 66 65 63 62 62 65 69 72 73 74 76 75 75 75 72 65 58 55 53 51 48 46 44 44 45 44 44 46 48 47 46 45 44 44 43 42 40 40 38 38 37 36 36 35 34 32 30 28 27 25 23 21 22 25 28 28 27 26 25 24 25 27 29 29 27 26 25 24 24 23 23 24 25 26 25 25 25
56 54 57 63 68 70 71 72 72 69 65 63 65 70 74 75 74 76 77 73 67 63 61 57 53 52 51 50 48 47 47 47 47 46 47 49 51 50 50 50 50 49 46 43 41 39 39 38 37 36 34 33 31 29 28 27 25 23 21 20 21 23 27 28 28 27 26 27 28 30 29 27 25 24 24 23 23 22 22 23 24 24 25 24 24